User: anonymous   Login
Location: Newark
(45.6000°N, 12.8833°E)
Time: 20:23:15
(UTC+00:00)
Language:

Envisat - Orbit

View from above orbital plane
View from above orbital plane
View from above satellite
View from above satellite

Ground track
Ground track

The orbit data is extracted from the following two-line orbital elements,

1 27386U 02009A   19325.11527826  .00000007  00000-0  15641-4 0  9997
2 27386  98.1426 338.1371 0001327  95.0270 308.9851 14.37963348928539
Epoch (UTC): 21 November 2019 02:46:00
Eccentricity: 0.0001327
inclination: 98.1426°
perigee height: 764 km
apogee height: 766 km
right ascension of ascending node: 338.1371°
argument of perigee: 95.0270°
revolutions per day: 14.37963348
mean anomaly at epoch: 308.9851°
orbit number at epoch: 92853

The dashed part of the orbit path shows where the satellite is in the earth's shadow,  

DLR